Location: Cisewo
(53.3833°N, 14.9000°E)
Time: 11:08:46
(UTC+00:00)

Cosmos 921 Rocket - Pass Details

Date: 18 April 2021
Orbit: 572 x 631 km, 75.8° (Epoch: 14 May)

Event Time Altitude Azimuth Distance (km) Brightness Sun altitude
Rises 21:55:12 0° 335° (NNW) 2,919 7.9 -24.0°
Reaches altitude 10° 21:57:29 10° 334° (NNW) 2,001 6.7 -24.1°
Enters shadow 22:01:48 72° 267° (W) 651 3.1 -24.3°
